Flag for Morocco Weather past 2 weeks in Casablanca, Morocco

Now
75 °F

Passing clouds.


Feels Like: 76 °F
Forecast: N/A
Wind: 9 mph from Northwest

Location: Casablanca Airport

Current Time: Jul 7, 2015 at 10:05:25 PM

Latest Report: Jul 7, 2015 at 9:00 PM


Visibility: N/A

Pressure: 29.98 "Hg

Humidity: 78%

Dew point: 68 °F

Location of CasablancaLocation

Historic Weather in Casablanca — Graph

°F

Casablanca temperature yesterday

Maximum temperature yesterday: 84 °F (at 12:00 PM)
Minimum temperature yesterday: 73 °F (at 5:00 AM)
Average temperature yesterday: 80 °F

Past Weeks' High & Low Weather Summary

 TemperatureHumidityPressure
High84 °F (Jul 6, 12:00 PM)100% (Jun 23, 11:00 AM)30.09 "Hg (Jun 23, 11:00 AM)
Low36 °F (Jun 23, 11:00 AM)50% (Jun 25, 2:00 PM)29.92 "Hg (Jun 27, 5:00 AM)
Average74 °F77%30.00 "Hg
* Reported Jun 22 8:00 PM — Jul 7 8:00 PM, Casablanca, Weather by CustomWeather, © 2015

Note: Actual official high and low records may vary slightly from our data, if they occured in-between our weather recording intervals... More about our weather records

Advertising

Casablanca weather history for previous 24 hours

 ConditionsComfort  
Time TempWeatherWind HumidityBarometerVisibility
8:00 PM
Tue, Jul 7
77 °FPassing clouds.12 mph79%29.95 "HgN/A
7:00 PM77 °FPassing clouds.12 mph79%29.95 "HgN/A
6:00 PM81 °FPassing clouds.14 mph70%29.98 "HgN/A
5:00 PM81 °FPassing clouds.14 mph70%29.98 "HgN/A
4:00 PM82 °FPassing clouds.14 mph66%29.98 "HgN/A
3:00 PM81 °FPassing clouds.14 mph70%29.98 "HgN/A
2:00 PM82 °FClear.14 mph66%29.98 "Hg5 mi
1:00 PM82 °FClear.14 mph66%29.98 "Hg5 mi
12:00 PM82 °FClear.9 mph66%29.98 "Hg5 mi
10:00 AM73 °FClear.2 mph83%29.92 "Hg5 mi
9:00 AM73 °FClear.2 mph83%29.92 "Hg5 mi
8:00 AM73 °FClear.2 mph83%29.92 "Hg5 mi
7:00 AM73 °FClear.2 mph89%29.92 "Hg5 mi
6:00 AM72 °FClear.2 mph94%29.92 "Hg5 mi
1:00 AM75 °FClear.7 mph78%29.98 "Hg5 mi
12:00 AM75 °FClear.7 mph78%29.98 "Hg5 mi
11:00 PM
Mon, Jul 6
77 °FClear.5 mph74%29.95 "Hg5 mi
10:00 PM77 °FClear.5 mph74%29.95 "Hg5 mi
Weather by CustomWeather, © 2015

See weather overviewHow to use our weather pages